Regional Weather Roundup
Issued by NWS

Home | Current Version | Previous Version | Text Only | Print | Product List | Glossary Off
Versions: 1 2 3 4 5 6 7 8 9 10 11 12 13 14 15 16 17 18 19 20 21 22 23 24 25 26 27 28 29 30 31 32 33 34 35 36 37 38 39 40 41 42 43 44 45 46 47 48 49 50

000
ASUS45 KABQ 041510
RWRNM
WEATHER ROUNDUP FOR NEW MEXICO
NATIONAL WEATHER SERVICE ALBUQUERQUE NM
900 AM MDT MON MAY 04 2015

NOTE: "FAIR" MEANS FEW OR NO CLOUDS BELOW 12,000 FEET AGL WITH NO
       SIGNIFICANT WEATHER OR OBSTRUCTIONS TO VISION.

      THIS PRODUCT IS RELEASED AS TWO VERSIONS.  ONE VERSION NEAR
      THE TOP OF THE HOUR CONTAINING PRELIMINARY DATA FROM ALBUQUERQUE
      AND OTHER STATIONS.  A FINAL VERSION WITH ADDITIONAL DATA IS
      ISSUED ABOUT 10 MINUTES AFTER THE HOUR.

NMZ501-503-504-510>518-041600-
NORTHWEST PLATEAU/NORTHCENTRAL MOUNTAINS

CITY           SKY/WX    TMP DP  RH WIND       PRES   REMARKS
FARMINGTON     PTSUNNY   57  39  51 E6        30.04S
LOS ALAMOS     PTSUNNY   52  40  61 SE3       30.15R
SANTA FE       PTSUNNY   57  39  51 CALM      30.11S
TAOS           MOSUNNY   54  36  50 NW5       30.14F
ANGEL FIRE     CLOUDY    39  38  98 N3        30.21F

$$
NMZ402-403-502-505>509-041600-
WESTCENTRAL MOUNTAINS/SOUTHWEST MOUNTAINS

CITY           SKY/WX    TMP DP  RH WIND       PRES   REMARKS
GALLUP         LGT RAIN  50  42  74 NW10      30.08R
GRANTS         MOSUNNY   55  38  53 SE5       30.11F
SILVER CITY      N/A     59  41  51 NW9       30.05S

$$
NMZ407-409-411-412-041600-
SOUTHERN DESERTS

CITY           SKY/WX    TMP DP  RH WIND       PRES   REMARKS
LORDSBURG      PTSUNNY   59  50  72 N5        30.00S
DEMING         PTSUNNY   64  45  49 W12       29.99S
LAS CRUCES     MOSUNNY   69  42  37 E3        29.99S
ALAMOGORDO     SUNNY     66  48  52 S5        29.99S
T OR C         MOSUNNY   68  39  34 NE10      29.99F

$$
NMZ519>523-041600-
CENTRAL VALLEYS/CENTRAL HIGHLANDS

CITY           SKY/WX    TMP DP  RH WIND       PRES   REMARKS
ALBUQUERQUE    MOSUNNY   62  42  47 W10       30.05S
DOUBLE EAGLE   MOSUNNY   61  39  44 E6        30.08S
MORIARTY ARPT  FAIR      55  40  56 NE6       30.10F
CLINES CORNERS CLOUDY    56  40  55 N8        30.12S
BELEN          FAIR      63  42  46 NW8       30.04S
SOCORRO        FAIR      64  40  41 CALM      30.02S

$$
NMZ524>526-539-540-041600-
SOUTHCENTRAL MOUNTAINS

CITY           SKY/WX    TMP DP  RH WIND       PRES   REMARKS
RUIDOSO        PTSUNNY   50  48  93 CALM      30.15R

$$
NMZ527>531-041600-
NORTHEAST HIGHLANDS/NORTHEAST PLAINS

CITY           SKY/WX    TMP DP  RH WIND       PRES   REMARKS
LAS VEGAS      MOSUNNY   56  40  55 N5        30.14F
RATON          MOSUNNY   60  42  51 NE7       30.11F
CLAYTON        SUNNY     66  46  48 VRB5      30.08R

$$
NMZ532>537-041600-
EASTCENTRAL PLAINS

CITY           SKY/WX    TMP DP  RH WIND       PRES   REMARKS
TUCUMCARI      PTSUNNY   66  51  58 S6        30.02S
CANNON AFB     NOT AVBL
CLOVIS AIRPORT SUNNY     66  54  63 SE15      30.05R

$$
NMZ028-029-538-041600-
SOUTHEAST PLAINS

CITY           SKY/WX    TMP DP  RH WIND       PRES   REMARKS
ROSWELL        LGT RAIN  63  50  62 N15G24    29.96F
ARTESIA        PTSUNNY   66  55  68 E6        30.00S
CARLSBAD       CLOUDY    67  55  65 SE7       29.98R
HOBBS          SUNNY     63  59  88 SE12      30.04R


$$



USA.gov is the U.S. government's official web portal to all federal, state and local government web resources and services.